Flag for U.S.A. Weather past 2 weeks in Charleston, West Virginia, U.S.A.

Now
42 °F

Mostly cloudy.


Feels Like: 36 °F
Forecast: 36 / 46 °F
Wind: 10 mph from West

Location: Yeager Airport

Current Time: Dec 25, 2014 at 2:25:59 PM

Latest Report: Dec 25, 2014 at 1:54 PM


Visibility: 10 mi

Pressure: 30.16 "Hg

Humidity: 68%

Dew point: 32 °F

Location of CharlestonLocation

Historic Weather in Charleston — Graph

°F

Charleston temperature yesterday

Maximum temperature yesterday: 67 °F (at 1:54 PM)
Minimum temperature yesterday: 43 °F (at 11:54 PM)
Average temperature yesterday: 57 °F

Past Weeks' High & Low Weather Summary

 TemperatureHumidityPressure
High67 °F (Dec 24, 1:54 PM)97% (Dec 23, 10:54 PM)30.33 "Hg (Dec 23, 10:54 PM)
Low27 °F (Dec 21, 7:54 AM)35% (Dec 12, 3:54 PM)29.38 "Hg (Dec 24, 5:54 PM)
Average39 °F73%30.10 "Hg
* Reported Dec 10 12:54 PM — Dec 25 12:54 PM, Charleston, Weather by CustomWeather, © 2014

Note: Actual official high and low records may vary slightly from our data, if they occured in-between our weather recording intervals... More about our weather records

Advertising

Charleston weather history for previous 24 hours

 ConditionsComfort  
Time TempWeatherWind HumidityBarometerVisibility
12:54 PM
Dec 25
42 °FMostly cloudy.9 mph68%30.14 "Hg10 mi
11:54 AM41 °FMostly cloudy.10 mph74%30.13 "Hg9 mi
10:54 AM41 °FDrizzle. Mostly cloudy.7 mph76%30.13 "Hg7 mi
9:54 AM41 °FMostly cloudy.5 mph76%30.10 "Hg10 mi
8:54 AM40 °FDrizzle. Mostly cloudy.6 mph83%30.04 "Hg9 mi
7:54 AM41 °FOvercast.10 mph74%29.99 "Hg10 mi
6:54 AM41 °FOvercast.12 mph74%29.94 "Hg10 mi
5:54 AM42 °FMostly cloudy.16 mph71%29.90 "Hg10 mi
4:54 AM42 °FOvercast.12 mph79%29.86 "Hg10 mi
3:54 AM41 °FMostly cloudy.7 mph89%29.84 "Hg10 mi
2:54 AM41 °FMostly cloudy.7 mph86%29.80 "Hg8 mi
1:54 AM43 °FPassing clouds.7 mph79%29.77 "Hg10 mi
12:54 AM42 °FPassing clouds.8 mph85%29.77 "Hg10 mi
11:54 PM
Dec 24
43 °FMostly cloudy.20 mph82%29.77 "Hg10 mi
10:54 PM44 °FLight rain. Mostly cloudy.14 mph85%29.75 "Hg10 mi
9:54 PM45 °FLight rain. Mostly cloudy.15 mph82%29.72 "Hg10 mi
8:54 PM47 °FLight rain. Overcast.21 mph77%29.67 "Hg10 mi
7:54 PM50 °FLight rain. Mostly cloudy.12 mph77%29.59 "Hg9 mi
6:54 PM52 °FLight rain. Overcast.15 mph83%29.52 "Hg7 mi
5:54 PM65 °FThunderstorms. Partly cloudy.8 mph63%29.38 "Hg10 mi
4:54 PM65 °FBroken clouds.9 mph61%29.41 "Hg10 mi
3:54 PM66 °FBroken clouds.13 mph61%29.41 "Hg10 mi
2:54 PM67 °FBroken clouds.8 mph57%29.44 "Hg10 mi
Weather by CustomWeather, © 2014

See weather overviewHow to use our weather pages